OPS 4682 DEB, 38360

Orbit data source: Space-Track

OPS 4682 DEB, 38360 is space debris in LEO originally from a launch on Sat, 03 Apr 1965 UTC launched from the Air Force Western Test Range (AFWTR). Debris objects in space refer to the collection of defunct objects orbiting the Earth. Examples of debris include non-operational satellites, rocket bodies, and fragments generated from explosions, collisions, or faulty payload assembly.

Loading next visibility...
Identifier
38360, 1965-027BM
Orbit
LEO
Country
Flag of USUS
Related business
Manufacturer
Unknown
Mission
Spacecraft
Bus & Motor
Unknown
Mass
Unknown
Launch date (UTC)
1965-04-03 (61 years ago)
Launch vehicle
Unknown
Launch site
Air Force Western Test Range (AFWTR)
Object type
Payload
Rocket body
Debris
Shape & HBR
Unknown shape, 0.1 m
Radar Cross Section
Medium (>0.1 m² and <1 m²)

Expand to show TLE details & history
Last TLE update: 1 day ago

TLE from 1 day ago
0 OPS 4682 DEB
1 38360U 65027BM  26262.56998219  .00000130  00000-0  40172-3 0  9998
2 38360  90.2456   6.9071 0031483 339.3629  20.6220 13.00843881677092
Epoch: 2026-09-19T13:40Z
TLE epoch observation values (Epoch: 2026-09-19T13:40:46.461Z)
Latitude
-0°
Longitude
163.23689°
Altitude
1,239.169 km
Speed
7.246 km/s
True Right ascension
00h 27m 37s
True Declination
0° 00' 00"
Sunlit
Object was in full shadow at epoch
Visualization orbit readout
Latitude
Unknown
Longitude
Unknown
Altitude
Unknown
Speed
Unknown
Apparent Right ascension
Unknown
Apparent Declination
Unknown
Sunlit
N/A
Visualization observer readout
Local Sidereal Time
09:46:52
Azimuth
Unknown
Elevation
Unknown
Doppler factor
Unknown
Orbital elements
Apogee altitude
1,279.942 km
Perigee altitude
1,231.873 km
Semi-major axis
7,634.045 km
Eccentricity
0.00315
Inclination
90.2456°
RAAN
6.9071°
Arg. of periapsis
339.3629°
True anomaly
20.74953°
Mean anomaly
20.622°
Eccentric anomaly
20.68572°
Mean motion
3.25395 °/min
Orbital period
110.63 mins
BSTAR
0.00040172
Loading maneuver chart data...
Computing Atmospheric mass density...
Loading historical data...
Loading historical data...
Loading historical data...
Loading historical data...
Loading historical data...
Loading historical data...
Loading historical data...

Documentation

Showing up to 5 results
|